Location: Eaton Estates
(41.3089°N, 82.0057°W)
Time: 17:06:36
(UTC+00:00)

ATLAS 5 CENTAUR R/B - Pass Details

Date: 17 June 2021
Orbit: 510 x 1148 km, 63.4° (Epoch: 28 July)

Event Time Altitude Azimuth Distance (km) Brightness Sun altitude
Exits shadow 06:48:55 15° 111° (ESE) 1,467 3.5 -22.7°
Maximum altitude 06:48:57 15° 110° (ESE) 1,468 3.5 -22.7°
Drops below altitude 10° 06:51:21 10° 74° (ENE) 1,835 4.4 -22.5°
Sets 06:54:25 0° 52° (NE) 2,828 5.9 -22.3°
